M I D A S
Marine Information and Data Acquisition System
Tripno 585 of the Zeeleeuw from 2003-09-08 06:55:49 to 2003-09-08 15:36:28
Back to CruiseResearch ActivitiesStationsMapUnderway DataData graphs

EquipmentUnitsComments
TimeDGPSUTC
LatitudeDGPSDM.mWGS84
LongitudeDGPSDM.mWGS84
SpeedMeteo Stationm/sRelative wind speed
DirectionMeteo StationdegRelative wind direction
TemperatureMeteo Stationdeg CelciusAir temperature
PressureMeteo StationPaAtmospheric pressure
HumidityMeteo Station%Relative humidity
Missing or incorrect values are displayed as -999
Metereological data collected by the RV Zeeleeuw from 2003-09-08 06:55:49 to 2003-09-08 15:36:28
                                                                                    Next 1000 lines
Time Latitude Longitude Speed Direction Temperature Pressure Humidity
2003-09-08 06:55:57 51°13.74 2°55.71 1.6 339 13.2 100940 80
2003-09-08 06:56:01 51°13.75 2°55.71 1.8 351 13.2 100940 80
2003-09-08 06:56:05 51°13.75 2°55.71 1.9 351 13.2 100940 80
2003-09-08 06:56:11 51°13.76 2°55.7 1.8 350 13.2 100940 80
2003-09-08 06:56:15 51°13.76 2°55.7 2 349 13.2 100940 80
2003-09-08 06:56:21 51°13.77 2°55.69 2.1 351 13.3 100940 80
2003-09-08 06:56:25 51°13.77 2°55.68 2.1 356 13.3 100940 80
2003-09-08 06:56:31 51°13.78 2°55.68 2.1 351 13.3 100940 80
2003-09-08 06:56:35 51°13.78 2°55.67 2.4 2 13.3 100940 80
2003-09-08 06:56:41 51°13.79 2°55.67 2.5 357 13.3 100940 80
2003-09-08 06:56:45 51°13.8 2°55.66 2.4 359 13.3 100940 80
2003-09-08 06:56:51 51°13.81 2°55.65 2.8 1 13.3 100940 79
2003-09-08 06:56:55 51°13.82 2°55.65 2.9 356 13.3 100940 79
2003-09-08 06:57:01 51°13.83 2°55.64 3 4 13.3 100940 79
2003-09-08 06:57:05 51°13.83 2°55.64 2.9 1 13.3 100940 79
2003-09-08 06:57:11 51°13.84 2°55.63 3.2 5 13.4 100940 79
2003-09-08 06:57:15 51°13.85 2°55.62 3.4 5 13.4 100940 79
2003-09-08 06:57:21 51°13.86 2°55.61 3.2 355 13.3 100940 79
2003-09-08 06:57:27 51°13.88 2°55.6 3.5 3 13.3 100940 79
2003-09-08 06:57:31 51°13.88 2°55.6 3.7 355 13.4 100940 79
2003-09-08 06:57:35 51°13.89 2°55.59 3.2 352 13.4 100940 79
2003-09-08 06:57:41 51°13.9 2°55.58 3.5 356 13.4 100940 79
2003-09-08 06:57:45 51°13.91 2°55.58 4.1 358 13.4 100940 79
2003-09-08 06:57:51 51°13.92 2°55.57 3.6 8 13.4 100940 78
2003-09-08 06:57:55 51°13.93 2°55.56 3.7 2 13.4 100940 78
2003-09-08 06:58:01 51°13.94 2°55.55 3.5 358 13.4 100940 78
2003-09-08 06:58:07 51°13.96 2°55.54 4.1 2 13.4 100940 78
2003-09-08 06:58:11 51°13.97 2°55.54 4 353 13.4 100940 78
2003-09-08 06:58:15 51°13.97 2°55.53 3.7 7 13.4 100940 78
2003-09-08 06:58:21 51°13.99 2°55.52 3.3 358 13.4 100940 78
2003-09-08 06:58:25 51°14 2°55.51 3.5 2 13.4 100940 78
2003-09-08 06:58:31 51°14.01 2°55.5 3.7 358 13.5 100940 78
2003-09-08 06:58:35 51°14.02 2°55.5 3.9 4 13.5 100940 78
2003-09-08 06:58:41 51°14.03 2°55.49 3.9 357 13.5 100940 78
2003-09-08 06:58:47 51°14.04 2°55.48 3.9 1 13.5 100940 78
2003-09-08 06:58:51 51°14.05 2°55.47 3.6 1 13.5 100940 78
2003-09-08 06:58:55 51°14.06 2°55.47 3.7 6 13.5 100940 78
2003-09-08 06:59:01 51°14.07 2°55.46 3.4 354 13.5 100940 78
2003-09-08 06:59:05 51°14.08 2°55.45 3.4 354 13.5 100940 78
2003-09-08 06:59:11 51°14.09 2°55.44 4.3 359 13.6 100940 78
2003-09-08 06:59:15 51°14.1 2°55.43 3.6 2 13.6 100940 78
2003-09-08 06:59:21 51°14.12 2°55.42 3.5 4 13.6 100940 78
2003-09-08 06:59:25 51°14.12 2°55.42 4.2 3 13.6 100940 78
2003-09-08 06:59:31 51°14.14 2°55.41 4.1 359 13.6 100940 77
2003-09-08 06:59:35 51°14.14 2°55.4 3.9 2 13.6 100940 77
2003-09-08 06:59:41 51°14.16 2°55.39 4.4 356 13.6 100930 77
2003-09-08 06:59:47 51°14.17 2°55.38 3.9 357 13.6 100930 77
2003-09-08 06:59:51 51°14.18 2°55.37 4.2 2 13.7 100940 77
2003-09-08 06:59:55 51°14.19 2°55.36 3.9 357 13.7 100940 77
2003-09-08 07:00:01 51°14.2 2°55.35 4.7 2 13.7 100940 77
2003-09-08 07:00:05 51°14.2 2°55.34 4.7 6 13.7 100940 77
2003-09-08 07:00:11 51°14.22 2°55.32 4.1 3 13.7 100940 77
2003-09-08 07:00:15 51°14.22 2°55.31 4.1 2 13.7 100940 77
2003-09-08 07:00:21 51°14.23 2°55.3 4.2 4 13.8 100940 77
2003-09-08 07:00:27 51°14.24 2°55.28 4.2 5 13.8 100940 77
2003-09-08 07:00:31 51°14.25 2°55.27 3.9 3 13.8 100930 77
2003-09-08 07:00:35 51°14.26 2°55.26 4.2 4 13.8 100930 77
2003-09-08 07:00:41 51°14.27 2°55.25 4.1 358 13.9 100940 77
2003-09-08 07:00:45 51°14.27 2°55.24 4.6 7 13.9 100940 77
2003-09-08 07:00:51 51°14.28 2°55.22 4.6 2 13.9 100930 77
2003-09-08 07:00:55 51°14.29 2°55.21 4.6 6 13.9 100930 77
2003-09-08 07:01:01 51°14.3 2°55.19 4.4 6 13.9 100940 77
2003-09-08 07:01:05 51°14.31 2°55.18 4.2 4 13.9 100940 77
2003-09-08 07:01:11 51°14.32 2°55.16 4.5 7 14 100940 76
2003-09-08 07:01:15 51°14.32 2°55.15 4.4 8 14 100940 76
2003-09-08 07:01:21 51°14.33 2°55.13 5 357 14 100940 76
2003-09-08 07:01:25 51°14.34 2°55.12 5.3 357 14 100940 76
2003-09-08 07:01:31 51°14.34 2°55.1 5 357 14 100940 76
2003-09-08 07:01:35 51°14.35 2°55.09 5 353 14 100940 76
2003-09-08 07:01:41 51°14.36 2°55.07 5.2 349 14.1 100940 76
2003-09-08 07:01:45 51°14.37 2°55.06 5 345 14.1 100940 76
2003-09-08 07:01:51 51°14.38 2°55.04 5.1 346 14.1 100930 76
2003-09-08 07:01:55 51°14.38 2°55.03 4.9 344 14.1 100930 76
2003-09-08 07:02:01 51°14.39 2°55.02 4.9 342 14.1 100940 76
2003-09-08 07:02:07 51°14.4 2°55 4.5 343 14.1 100940 76
2003-09-08 07:02:11 51°14.41 2°54.99 4.4 339 14.2 100940 76
2003-09-08 07:02:15 51°14.42 2°54.98 4.8 343 14.2 100940 76
2003-09-08 07:02:21 51°14.43 2°54.97 4.7 343 14.2 100940 76
2003-09-08 07:02:25 51°14.44 2°54.96 4.8 345 14.2 100940 76
2003-09-08 07:02:31 51°14.45 2°54.95 5.4 343 14.3 100940 76
2003-09-08 07:02:35 51°14.46 2°54.94 4.9 345 14.3 100940 76
2003-09-08 07:02:41 51°14.47 2°54.93 5.1 343 14.3 100940 76
2003-09-08 07:02:47 51°14.49 2°54.91 5.3 344 14.3 100940 76
2003-09-08 07:02:51 51°14.5 2°54.9 5.5 343 14.3 100940 76
2003-09-08 07:02:55 51°14.51 2°54.89 5.4 344 14.3 100940 76
2003-09-08 07:03:01 51°14.52 2°54.88 5.8 344 14.4 100930 76
2003-09-08 07:03:07 51°14.54 2°54.86 5.5 343 14.4 100930 76
2003-09-08 07:03:11 51°14.55 2°54.85 5.9 341 14.4 100940 75
2003-09-08 07:03:15 51°14.56 2°54.84 5.7 346 14.4 100940 75
2003-09-08 07:03:21 51°14.57 2°54.82 5.6 342 14.4 100940 75
2003-09-08 07:03:25 51°14.58 2°54.81 6 344 14.4 100940 75
2003-09-08 07:03:31 51°14.6 2°54.79 5.8 343 14.4 100940 75
2003-09-08 07:03:35 51°14.61 2°54.78 5.8 343 14.4 100940 75
2003-09-08 07:03:41 51°14.62 2°54.77 6 341 14.4 100940 75
2003-09-08 07:03:47 51°14.64 2°54.75 5.7 344 14.4 100940 75
2003-09-08 07:03:51 51°14.65 2°54.74 5.7 347 14.4 100940 75
2003-09-08 07:03:55 51°14.66 2°54.73 6.1 346 14.4 100940 75
2003-09-08 07:04:01 51°14.68 2°54.71 6.2 344 14.4 100940 75
2003-09-08 07:04:05 51°14.69 2°54.7 6.8 346 14.4 100940 75
2003-09-08 07:04:11 51°14.7 2°54.68 6.2 348 14.4 100940 74
2003-09-08 07:04:15 51°14.72 2°54.67 6.4 347 14.4 100940 74
2003-09-08 07:04:21 51°14.73 2°54.65 6.2 349 14.4 100940 74
2003-09-08 07:04:27 51°14.75 2°54.63 6.7 346 14.4 100940 74
2003-09-08 07:04:31 51°14.76 2°54.62 6.6 344 14.4 100940 74
2003-09-08 07:04:35 51°14.77 2°54.6 6.8 347 14.4 100940 74
2003-09-08 07:04:41 51°14.79 2°54.58 6.4 348 14.4 100940 74
2003-09-08 07:04:45 51°14.8 2°54.57 5.9 347 14.4 100940 74
2003-09-08 07:04:51 51°14.82 2°54.55 6.1 343 14.4 100940 74
2003-09-08 07:04:55 51°14.83 2°54.54 6.2 345 14.4 100940 74
2003-09-08 07:05:01 51°14.85 2°54.52 6.1 345 14.4 100940 74
2003-09-08 07:05:07 51°14.87 2°54.5 6.5 343 14.4 100940 74
2003-09-08 07:05:11 51°14.88 2°54.49 7.2 345 14.5 100940 75
2003-09-08 07:05:15 51°14.89 2°54.48 7.3 345 14.5 100940 75
2003-09-08 07:05:21 51°14.91 2°54.46 7.1 345 14.5 100940 75
2003-09-08 07:05:27 51°14.93 2°54.44 7.2 345 14.5 100940 75
2003-09-08 07:05:31 51°14.94 2°54.42 7.3 346 14.5 100940 75
2003-09-08 07:05:35 51°14.95 2°54.41 7.1 346 14.5 100940 75
2003-09-08 07:05:41 51°14.96 2°54.38 7.1 349 14.5 100940 75
2003-09-08 07:05:45 51°14.97 2°54.36 7.3 347 14.5 100940 75
2003-09-08 07:05:51 51°14.98 2°54.33 7.2 349 14.5 100940 75
2003-09-08 07:05:57 51°14.98 2°54.3 6.8 348 14.5 100940 75
2003-09-08 07:06:01 51°14.99 2°54.28 7.2 347 14.5 100940 75
2003-09-08 07:06:05 51°14.99 2°54.26 7.5 346 14.5 100940 75
2003-09-08 07:06:11 51°15 2°54.22 7.6 346 14.5 100940 75
2003-09-08 07:06:15 51°15.01 2°54.2 7.9 351 14.5 100940 75
2003-09-08 07:06:21 51°15.01 2°54.17 8.1 349 14.6 100940 75
2003-09-08 07:06:25 51°15.02 2°54.15 8 351 14.6 100940 75
2003-09-08 07:06:31 51°15.02 2°54.11 8 351 14.6 100930 76
2003-09-08 07:06:35 51°15.03 2°54.09 7.7 352 14.6 100930 76
2003-09-08 07:06:41 51°15.03 2°54.05 8.2 346 14.6 100940 76
2003-09-08 07:06:47 51°15.04 2°54.02 7.8 350 14.6 100940 76
2003-09-08 07:06:51 51°15.04 2°54 8.7 348 14.6 100940 76
2003-09-08 07:06:55 51°15.05 2°53.97 8.5 349 14.6 100940 76
2003-09-08 07:07:01 51°15.05 2°53.94 8.4 349 14.6 100930 76
2003-09-08 07:07:07 51°15.06 2°53.91 8.6 350 14.6 100930 76
2003-09-08 07:07:11 51°15.06 2°53.88 8.3 349 14.6 100940 76
2003-09-08 07:07:15 51°15.07 2°53.86 8.1 353 14.6 100940 76
2003-09-08 07:07:21 51°15.07 2°53.82 7.9 349 14.6 100930 76
2003-09-08 07:07:27 51°15.08 2°53.79 7.5 349 14.6 100930 76
2003-09-08 07:07:31 51°15.08 2°53.77 7.6 351 14.6 100930 76
2003-09-08 07:07:35 51°15.08 2°53.74 8 353 14.6 100930 76
2003-09-08 07:07:41 51°15.09 2°53.71 8.3 350 14.6 100930 75
2003-09-08 07:07:45 51°15.09 2°53.68 7.7 350 14.6 100930 75
2003-09-08 07:07:51 51°15.09 2°53.65 8.2 349 14.6 100930 75
2003-09-08 07:07:57 51°15.1 2°53.61 8.2 352 14.6 100930 75
2003-09-08 07:08:01 51°15.1 2°53.59 8 347 14.6 100930 75
2003-09-08 07:08:05 51°15.1 2°53.57 8.2 349 14.6 100930 75
2003-09-08 07:08:11 51°15.11 2°53.53 7.8 350 14.7 100930 76
2003-09-08 07:08:15 51°15.11 2°53.51 7.7 350 14.7 100930 76
2003-09-08 07:08:21 51°15.12 2°53.47 8.4 350 14.7 100930 76
2003-09-08 07:08:27 51°15.12 2°53.44 8.6 352 14.7 100930 76
2003-09-08 07:08:31 51°15.13 2°53.41 7.6 350 14.7 100930 76
2003-09-08 07:08:35 51°15.13 2°53.39 7.4 349 14.7 100930 76
2003-09-08 07:08:41 51°15.13 2°53.36 8 347 14.7 100930 75
2003-09-08 07:08:45 51°15.14 2°53.33 7.8 347 14.7 100930 75
2003-09-08 07:08:51 51°15.14 2°53.3 8.4 350 14.7 100930 75
2003-09-08 07:08:55 51°15.14 2°53.27 8.1 350 14.7 100930 75
2003-09-08 07:09:01 51°15.15 2°53.24 8 349 14.7 100930 75
2003-09-08 07:09:07 51°15.15 2°53.2 8.1 347 14.7 100930 75
2003-09-08 07:09:11 51°15.16 2°53.18 8 347 14.7 100930 75
2003-09-08 07:09:15 51°15.16 2°53.15 8.4 348 14.7 100930 75
2003-09-08 07:09:21 51°15.16 2°53.12 8.8 349 14.8 100930 76
2003-09-08 07:09:25 51°15.17 2°53.09 8.7 348 14.8 100930 76
2003-09-08 07:09:31 51°15.17 2°53.06 8.2 349 14.8 100930 76
2003-09-08 07:09:35 51°15.17 2°53.04 8.2 345 14.8 100930 76
2003-09-08 07:09:41 51°15.18 2°53 8.5 348 14.8 100930 76
2003-09-08 07:09:47 51°15.18 2°52.96 8.2 349 14.8 100930 76
2003-09-08 07:09:51 51°15.19 2°52.94 8.2 349 14.8 100930 76
2003-09-08 07:09:55 51°15.19 2°52.92 8.7 348 14.8 100930 76
2003-09-08 07:10:01 51°15.19 2°52.88 8.4 349 14.8 100930 76
2003-09-08 07:10:07 51°15.2 2°52.85 8.2 348 14.8 100930 76
2003-09-08 07:10:11 51°15.2 2°52.82 7.9 345 14.8 100930 76
2003-09-08 07:10:15 51°15.21 2°52.8 8.4 345 14.8 100930 76
2003-09-08 07:10:21 51°15.21 2°52.76 8.2 346 14.8 100930 76
2003-09-08 07:10:25 51°15.21 2°52.74 8.6 346 14.8 100930 76
2003-09-08 07:10:31 51°15.22 2°52.7 8.2 348 14.8 100930 76
2003-09-08 07:10:35 51°15.22 2°52.68 8.8 348 14.8 100930 76
2003-09-08 07:10:41 51°15.23 2°52.64 8.5 347 14.8 100930 76
2003-09-08 07:10:47 51°15.23 2°52.61 8.4 347 14.8 100930 76
2003-09-08 07:10:51 51°15.23 2°52.59 8.2 347 14.8 100930 76
2003-09-08 07:10:55 51°15.24 2°52.56 8 349 14.8 100930 76
2003-09-08 07:11:01 51°15.24 2°52.53 7.4 348 14.8 100930 76
2003-09-08 07:11:05 51°15.24 2°52.5 8.1 347 14.8 100930 76
2003-09-08 07:11:11 51°15.25 2°52.47 8.5 347 14.8 100930 76
2003-09-08 07:11:15 51°15.25 2°52.44 8.6 347 14.8 100930 76
2003-09-08 07:11:21 51°15.25 2°52.41 8.3 345 14.9 100930 76
2003-09-08 07:11:27 51°15.25 2°52.37 8.9 343 14.9 100930 76
2003-09-08 07:11:31 51°15.26 2°52.35 8.3 346 14.9 100930 76
2003-09-08 07:11:35 51°15.26 2°52.32 8.1 345 14.9 100930 76
2003-09-08 07:11:41 51°15.26 2°52.29 8.2 345 14.9 100930 76
2003-09-08 07:11:45 51°15.26 2°52.26 8.3 347 14.9 100930 76
2003-09-08 07:11:51 51°15.27 2°52.23 7.6 345 14.9 100930 76
2003-09-08 07:11:55 51°15.27 2°52.2 8.4 346 14.9 100930 76
2003-09-08 07:12:01 51°15.27 2°52.17 8.3 346 14.9 100930 76
2003-09-08 07:12:05 51°15.27 2°52.14 8.4 350 14.9 100930 76
2003-09-08 07:12:11 51°15.28 2°52.11 8.4 348 14.9 100930 76
2003-09-08 07:12:15 51°15.28 2°52.08 8.6 346 14.9 100930 76
2003-09-08 07:12:21 51°15.28 2°52.05 8 346 14.9 100930 76
2003-09-08 07:12:27 51°15.29 2°52.01 8.7 347 14.9 100930 76
2003-09-08 07:12:31 51°15.29 2°51.99 8.4 347 14.9 100930 76
2003-09-08 07:12:35 51°15.29 2°51.96 8.6 346 14.9 100930 76
2003-09-08 07:12:41 51°15.29 2°51.93 7.8 347 14.9 100930 76
2003-09-08 07:12:45 51°15.3 2°51.9 7.1 347 14.9 100930 76
2003-09-08 07:12:51 51°15.3 2°51.87 7.5 343 14.9 100930 76
2003-09-08 07:12:55 51°15.3 2°51.84 8 346 14.9 100930 76
2003-09-08 07:13:01 51°15.3 2°51.81 8.2 349 14.9 100930 76
2003-09-08 07:13:07 51°15.31 2°51.77 7.6 350 14.9 100930 76
2003-09-08 07:13:11 51°15.31 2°51.75 8 350 14.9 100930 76
2003-09-08 07:13:15 51°15.31 2°51.72 8.1 345 14.9 100930 76
2003-09-08 07:13:21 51°15.31 2°51.69 8.7 347 14.9 100930 76
2003-09-08 07:13:25 51°15.31 2°51.66 8.7 346 14.9 100930 76
2003-09-08 07:13:31 51°15.31 2°51.63 8.5 347 14.9 100930 76
2003-09-08 07:13:35 51°15.32 2°51.6 8.4 348 14.9 100930 76
2003-09-08 07:13:41 51°15.32 2°51.56 9.2 348 14.9 100930 76
2003-09-08 07:13:47 51°15.32 2°51.53 8.4 348 14.9 100930 76
2003-09-08 07:13:51 51°15.32 2°51.5 8.5 351 14.9 100920 76
2003-09-08 07:13:55 51°15.32 2°51.48 7.7 349 14.9 100920 76
2003-09-08 07:14:01 51°15.32 2°51.44 7.7 351 14.9 100930 76
2003-09-08 07:14:05 51°15.32 2°51.42 8 348 14.9 100930 76
2003-09-08 07:14:11 51°15.32 2°51.38 7.8 349 14.9 100930 76
2003-09-08 07:14:15 51°15.33 2°51.36 8.1 352 14.9 100930 76
2003-09-08 07:14:21 51°15.33 2°51.32 7.6 349 14.9 100930 76
2003-09-08 07:14:25 51°15.33 2°51.29 7.3 352 14.9 100930 76
2003-09-08 07:14:31 51°15.33 2°51.26 8 349 14.9 100930 76
2003-09-08 07:14:35 51°15.33 2°51.23 8 349 14.9 100930 76
2003-09-08 07:14:41 51°15.33 2°51.2 7.6 351 14.9 100920 76
2003-09-08 07:14:47 51°15.33 2°51.16 7.7 352 14.9 100920 76
2003-09-08 07:14:51 51°15.33 2°51.14 7.1 352 14.9 100930 76
2003-09-08 07:14:55 51°15.33 2°51.11 7.4 352 14.9 100930 76
2003-09-08 07:15:01 51°15.32 2°51.07 7.8 350 14.9 100920 76
2003-09-08 07:15:05 51°15.32 2°51.05 7.9 351 14.9 100920 76
2003-09-08 07:15:11 51°15.32 2°51.01 7.8 349 14.9 100920 76
2003-09-08 07:15:15 51°15.32 2°50.99 8.6 351 14.9 100920 76
2003-09-08 07:15:21 51°15.32 2°50.95 8.2 353 14.9 100930 76
2003-09-08 07:15:25 51°15.32 2°50.93 7.9 354 14.9 100930 76
2003-09-08 07:15:31 51°15.32 2°50.89 7.9 352 14.9 100930 76
2003-09-08 07:15:35 51°15.32 2°50.87 7.5 350 14.9 100930 76
2003-09-08 07:15:41 51°15.31 2°50.83 7.6 352 14.9 100930 76
2003-09-08 07:15:47 51°15.31 2°50.8 7.8 351 14.9 100930 76
2003-09-08 07:15:51 51°15.31 2°50.77 8.6 349 15 100920 76
2003-09-08 07:15:55 51°15.31 2°50.75 8.6 351 15 100920 76
2003-09-08 07:16:01 51°15.31 2°50.71 8.1 354 14.9 100920 76
2003-09-08 07:16:07 51°15.3 2°50.68 8 353 14.9 100920 76
2003-09-08 07:16:11 51°15.3 2°50.65 8 355 15 100920 75
2003-09-08 07:16:15 51°15.3 2°50.63 8.3 352 15 100920 75
2003-09-08 07:16:21 51°15.3 2°50.59 7.9 351 14.9 100920 75
2003-09-08 07:16:27 51°15.29 2°50.56 8.5 355 14.9 100920 75
2003-09-08 07:16:31 51°15.29 2°50.53 8.5 355 15 100920 75
2003-09-08 07:16:35 51°15.29 2°50.51 8.2 352 15 100920 75
2003-09-08 07:16:41 51°15.28 2°50.47 8.4 354 15 100920 75
2003-09-08 07:16:47 51°15.28 2°50.44 7.8 352 15 100920 75
2003-09-08 07:16:51 51°15.28 2°50.41 7.7 353 15 100920 75
2003-09-08 07:16:55 51°15.27 2°50.39 7.4 350 15 100920 75
2003-09-08 07:17:01 51°15.27 2°50.35 7.8 353 15 100920 75
2003-09-08 07:17:07 51°15.27 2°50.32 8.8 354 15 100920 75
2003-09-08 07:17:11 51°15.27 2°50.29 8.1 355 15 100920 74
2003-09-08 07:17:15 51°15.26 2°50.27 8.4 352 15 100920 74
2003-09-08 07:17:21 51°15.26 2°50.23 8.2 354 15 100920 74
2003-09-08 07:17:25 51°15.26 2°50.21 8.1 351 15 100920 74
2003-09-08 07:17:31 51°15.25 2°50.17 7.9 355 15 100920 74
2003-09-08 07:17:35 51°15.25 2°50.15 7.6 354 15 100920 74
2003-09-08 07:17:41 51°15.25 2°50.11 7.3 350 15 100920 74
2003-09-08 07:17:47 51°15.24 2°50.07 7.1 351 15 100920 74
2003-09-08 07:17:51 51°15.24 2°50.05 7.5 350 15 100920 74
2003-09-08 07:17:55 51°15.24 2°50.02 7.6 351 15 100920 74
2003-09-08 07:18:01 51°15.24 2°49.99 7.8 355 15 100920 74
2003-09-08 07:18:07 51°15.23 2°49.95 7.8 354 15 100920 74
2003-09-08 07:18:11 51°15.23 2°49.93 8.2 354 15 100920 74
2003-09-08 07:18:15 51°15.23 2°49.9 8 354 15 100920 74
2003-09-08 07:18:21 51°15.23 2°49.87 8.3 351 15.1 100920 74
2003-09-08 07:18:27 51°15.22 2°49.83 8.2 355 15.1 100920 74
2003-09-08 07:18:31 51°15.22 2°49.81 8.9 356 15 100920 74
2003-09-08 07:18:35 51°15.22 2°49.78 8.3 352 15 100920 74
2003-09-08 07:18:41 51°15.21 2°49.75 8.4 351 15 100920 74
2003-09-08 07:18:47 51°15.21 2°49.71 8.3 350 15 100920 74
2003-09-08 07:18:51 51°15.21 2°49.69 8.2 351 15 100920 74
2003-09-08 07:18:55 51°15.21 2°49.66 8.3 355 15 100920 74
2003-09-08 07:19:01 51°15.2 2°49.63 7.2 351 15 100910 74
2003-09-08 07:19:05 51°15.2 2°49.6 7.3 350 15 100910 74
2003-09-08 07:19:11 51°15.2 2°49.57 7.7 352 15 100920 74
2003-09-08 07:19:15 51°15.2 2°49.54 8.1 355 15 100920 74
2003-09-08 07:19:21 51°15.19 2°49.51 7.9 354 15.1 100910 74
2003-09-08 07:19:27 51°15.19 2°49.47 7.5 353 15.1 100910 74
2003-09-08 07:19:31 51°15.19 2°49.45 7.8 352 15.1 100920 74
2003-09-08 07:19:37 51°15.18 2°49.41 7.3 351 15.1 100920 74
2003-09-08 07:19:41 51°15.18 2°49.39 8.4 351 15.1 100920 74
2003-09-08 07:19:45 51°15.18 2°49.36 8 352 15.1 100920 74
2003-09-08 07:19:51 51°15.18 2°49.33 8.1 357 15.1 100920 74
2003-09-08 07:19:55 51°15.17 2°49.3 7.6 354 15.1 100920 74
2003-09-08 07:20:01 51°15.17 2°49.27 7.4 353 15.1 100920 74
2003-09-08 07:20:07 51°15.17 2°49.23 7.7 354 15.1 100920 74
2003-09-08 07:20:11 51°15.17 2°49.21 7.7 353 15.1 100920 74
2003-09-08 07:20:15 51°15.16 2°49.18 8.3 353 15.1 100920 74
2003-09-08 07:20:21 51°15.16 2°49.15 8.1 353 15.1 100920 73
2003-09-08 07:20:25 51°15.16 2°49.12 8 353 15.1 100920 73
2003-09-08 07:20:31 51°15.15 2°49.09 7.5 351 15.1 100920 73
2003-09-08 07:20:35 51°15.15 2°49.06 8 353 15.1 100920 73
2003-09-08 07:20:41 51°15.15 2°49.03 8.3 349 15.1 100920 73
2003-09-08 07:20:45 51°15.15 2°49 8 351 15.1 100920 73
2003-09-08 07:20:51 51°15.14 2°48.97 8.1 354 15.1 100910 73
2003-09-08 07:20:55 51°15.14 2°48.94 8.5 351 15.1 100910 73
2003-09-08 07:21:01 51°15.14 2°48.91 8.5 350 15.1 100920 73
2003-09-08 07:21:05 51°15.14 2°48.88 7.7 353 15.1 100920 73
2003-09-08 07:21:11 51°15.13 2°48.85 9.2 349 15.1 100920 74
2003-09-08 07:21:15 51°15.13 2°48.82 9.3 352 15.1 100920 74
2003-09-08 07:21:21 51°15.13 2°48.79 8.4 355 15.1 100920 74
2003-09-08 07:21:25 51°15.13 2°48.76 8.9 355 15.1 100920 74
2003-09-08 07:21:31 51°15.12 2°48.73 8.2 356 15.2 100910 74
2003-09-08 07:21:35 51°15.12 2°48.7 8.2 355 15.2 100910 74
2003-09-08 07:21:41 51°15.12 2°48.67 8.7 350 15.2 100910 74
2003-09-08 07:21:47 51°15.11 2°48.63 8.2 353 15.2 100910 74
2003-09-08 07:21:51 51°15.11 2°48.61 8.9 352 15.2 100910 74
2003-09-08 07:21:55 51°15.11 2°48.58 8.6 351 15.2 100910 74
2003-09-08 07:22:01 51°15.11 2°48.55 8.8 355 15.2 100910 74
2003-09-08 07:22:05 51°15.1 2°48.52 8.1 354 15.2 100910 74
2003-09-08 07:22:11 51°15.1 2°48.49 8.3 353 15.2 100910 74
2003-09-08 07:22:15 51°15.1 2°48.46 7.3 353 15.2 100910 74
2003-09-08 07:22:21 51°15.1 2°48.43 8.2 353 15.2 100910 74
2003-09-08 07:22:27 51°15.09 2°48.39 7.9 351 15.2 100910 74
2003-09-08 07:22:31 51°15.09 2°48.37 7.3 353 15.2 100920 74
2003-09-08 07:22:35 51°15.09 2°48.34 7.4 349 15.2 100920 74
2003-09-08 07:22:41 51°15.08 2°48.31 8 350 15.3 100920 74
2003-09-08 07:22:45 51°15.08 2°48.28 8.1 348 15.3 100920 74
2003-09-08 07:22:51 51°15.08 2°48.25 7.6 348 15.2 100920 74
2003-09-08 07:22:57 51°15.08 2°48.21 8.1 351 15.2 100920 74
2003-09-08 07:23:01 51°15.07 2°48.19 7.3 352 15.3 100920 74
2003-09-08 07:23:07 51°15.07 2°48.15 8.2 351 15.3 100920 74
2003-09-08 07:23:11 51°15.07 2°48.13 8.1 350 15.3 100920 74
2003-09-08 07:23:15 51°15.07 2°48.1 8.8 356 15.3 100920 74
2003-09-08 07:23:21 51°15.06 2°48.07 8.5 356 15.2 100910 74
2003-09-08 07:23:27 51°15.06 2°48.03 8.4 354 15.2 100910 74
2003-09-08 07:23:31 51°15.06 2°48.01 7.9 353 15.3 100910 74
2003-09-08 07:23:35 51°15.06 2°47.98 7.9 352 15.3 100910 74
2003-09-08 07:23:41 51°15.05 2°47.95 7.9 350 15.3 100920 73
2003-09-08 07:23:45 51°15.05 2°47.92 8.3 353 15.3 100920 73
2003-09-08 07:23:51 51°15.05 2°47.89 8.8 358 15.2 100920 73
2003-09-08 07:23:55 51°15.05 2°47.86 8.1 357 15.2 100920 73
2003-09-08 07:24:01 51°15.04 2°47.83 8.2 350 15.2 100920 73
2003-09-08 07:24:07 51°15.04 2°47.79 8.7 356 15.2 100920 73
2003-09-08 07:24:11 51°15.04 2°47.77 8.6 355 15.3 100920 73
2003-09-08 07:24:15 51°15.04 2°47.75 8.8 357 15.3 100920 73
2003-09-08 07:24:21 51°15.03 2°47.71 8.5 353 15.3 100910 73
2003-09-08 07:24:25 51°15.03 2°47.69 8.5 355 15.3 100910 73
2003-09-08 07:24:31 51°15.03 2°47.65 8.5 351 15.3 100910 73
2003-09-08 07:24:35 51°15.03 2°47.63 8.5 349 15.3 100910 73
2003-09-08 07:24:41 51°15.02 2°47.59 8.3 352 15.3 100910 73
2003-09-08 07:24:47 51°15.02 2°47.56 7.7 353 15.3 100910 73
2003-09-08 07:24:51 51°15.02 2°47.53 7.8 349 15.3 100910 72
2003-09-08 07:24:55 51°15.01 2°47.51 7.4 355 15.3 100910 72
2003-09-08 07:25:01 51°15.01 2°47.47 8.8 355 15.3 100920 72
2003-09-08 07:25:05 51°15.01 2°47.45 9.1 354 15.3 100920 72
2003-09-08 07:25:11 51°15.01 2°47.41 8.6 355 15.3 100920 72
2003-09-08 07:25:15 51°15 2°47.39 8.5 357 15.3 100920 72
2003-09-08 07:25:21 51°15 2°47.35 8.7 355 15.4 100910 72
2003-09-08 07:25:27 51°15 2°47.32 8.3 358 15.4 100910 72
2003-09-08 07:25:31 51°15 2°47.3 8.1 352 15.4 100910 72
2003-09-08 07:25:35 51°14.99 2°47.27 7.7 353 15.4 100910 72
2003-09-08 07:25:41 51°14.99 2°47.24 8.9 355 15.4 100910 72
2003-09-08 07:25:47 51°14.99 2°47.2 9.2 351 15.4 100910 72
2003-09-08 07:25:51 51°14.99 2°47.18 8.4 357 15.4 100910 72
2003-09-08 07:25:55 51°14.98 2°47.15 9 357 15.4 100910 72
2003-09-08 07:26:01 51°14.98 2°47.12 8.4 354 15.4 100920 72
2003-09-08 07:26:05 51°14.98 2°47.09 8.9 352 15.4 100920 72
2003-09-08 07:26:11 51°14.97 2°47.06 8.5 353 15.4 100920 72
2003-09-08 07:26:15 51°14.97 2°47.04 8.3 356 15.4 100920 72
2003-09-08 07:26:21 51°14.97 2°47 8.8 349 15.4 100910 72
2003-09-08 07:26:25 51°14.97 2°46.98 8.5 350 15.4 100910 72
2003-09-08 07:26:31 51°14.97 2°46.94 8.7 353 15.4 100910 72
2003-09-08 07:26:35 51°14.96 2°46.92 7.9 354 15.4 100910 72
2003-09-08 07:26:41 51°14.96 2°46.88 8.2 353 15.4 100910 72
2003-09-08 07:26:47 51°14.96 2°46.85 8.9 349 15.4 100910 72
2003-09-08 07:26:51 51°14.96 2°46.82 8.4 348 15.4 100920 72
2003-09-08 07:26:55 51°14.95 2°46.8 8.8 354 15.4 100920 72
2003-09-08 07:27:01 51°14.95 2°46.76 8.4 350 15.5 100910 72
2003-09-08 07:27:07 51°14.95 2°46.73 8.6 351 15.5 100910 72
2003-09-08 07:27:11 51°14.95 2°46.71 9 350 15.5 100910 72
2003-09-08 07:27:15 51°14.94 2°46.68 8.3 349 15.5 100910 72
2003-09-08 07:27:21 51°14.94 2°46.65 8.1 349 15.5 100910 72
2003-09-08 07:27:27 51°14.94 2°46.61 9 347 15.5 100910 72
2003-09-08 07:27:31 51°14.94 2°46.59 9.1 349 15.5 100910 72
2003-09-08 07:27:35 51°14.93 2°46.56 8 347 15.5 100910 72
2003-09-08 07:27:41 51°14.93 2°46.53 8.9 352 15.5 100910 72
2003-09-08 07:27:45 51°14.93 2°46.5 8.7 352 15.5 100910 72
2003-09-08 07:27:51 51°14.93 2°46.47 8.4 353 15.5 100910 72
2003-09-08 07:27:55 51°14.93 2°46.44 8.5 352 15.5 100910 72
2003-09-08 07:28:01 51°14.93 2°46.41 7.8 348 15.5 100910 72
2003-09-08 07:28:07 51°14.92 2°46.37 8.5 352 15.5 100910 72
2003-09-08 07:28:11 51°14.92 2°46.35 8.7 351 15.5 100910 72
2003-09-08 07:28:15 51°14.92 2°46.33 7.7 353 15.5 100910 72
2003-09-08 07:28:21 51°14.92 2°46.29 8 352 15.5 100910 72
2003-09-08 07:28:25 51°14.91 2°46.27 7.8 351 15.5 100910 72
2003-09-08 07:28:31 51°14.91 2°46.23 8.4 352 15.5 100910 72
2003-09-08 07:28:35 51°14.91 2°46.21 7.8 349 15.5 100910 72
2003-09-08 07:28:41 51°14.91 2°46.17 7.6 350 15.5 100910 72
2003-09-08 07:28:47 51°14.9 2°46.14 8.8 350 15.5 100910 72
2003-09-08 07:28:51 51°14.9 2°46.11 8.4 353 15.5 100910 72
2003-09-08 07:28:55 51°14.9 2°46.09 8.3 352 15.5 100910 72
2003-09-08 07:29:01 51°14.9 2°46.05 8.1 347 15.5 100910 72
2003-09-08 07:29:05 51°14.89 2°46.03 8.9 348 15.5 100910 72
2003-09-08 07:29:11 51°14.89 2°45.99 8.5 350 15.5 100910 72
2003-09-08 07:29:15 51°14.89 2°45.97 8.2 349 15.5 100910 72
2003-09-08 07:29:21 51°14.89 2°45.93 8.4 349 15.5 100910 72
2003-09-08 07:29:27 51°14.88 2°45.9 8.4 356 15.5 100910 72
2003-09-08 07:29:31 51°14.88 2°45.87 8.5 356 15.6 100910 72
2003-09-08 07:29:35 51°14.88 2°45.85 7.9 356 15.6 100910 72
2003-09-08 07:29:41 51°14.88 2°45.81 7.6 355 15.5 100910 72
2003-09-08 07:29:47 51°14.87 2°45.78 7.6 356 15.5 100910 72
2003-09-08 07:29:51 51°14.87 2°45.75 8.6 355 15.5 100910 72
2003-09-08 07:29:55 51°14.87 2°45.73 8 353 15.5 100910 72
2003-09-08 07:30:01 51°14.86 2°45.69 8 355 15.5 100910 72
2003-09-08 07:30:05 51°14.86 2°45.67 8.5 352 15.5 100910 72
2003-09-08 07:30:11 51°14.86 2°45.63 8.2 352 15.5 100910 72
2003-09-08 07:30:15 51°14.86 2°45.61 8.4 355 15.5 100910 72
2003-09-08 07:30:21 51°14.85 2°45.57 8.7 349 15.6 100910 72
2003-09-08 07:30:27 51°14.85 2°45.54 8.3 352 15.6 100910 72
2003-09-08 07:30:31 51°14.85 2°45.51 8.1 355 15.6 100920 72
2003-09-08 07:30:35 51°14.85 2°45.49 8.9 355 15.6 100920 72
2003-09-08 07:30:41 51°14.84 2°45.45 8.1 357 15.6 100910 72
2003-09-08 07:30:45 51°14.84 2°45.43 8.1 353 15.6 100910 72
2003-09-08 07:30:51 51°14.84 2°45.39 8.3 354 15.6 100910 72
2003-09-08 07:30:55 51°14.84 2°45.37 8.8 354 15.6 100910 72
2003-09-08 07:31:01 51°14.83 2°45.33 8.8 353 15.6 100910 71
2003-09-08 07:31:07 51°14.83 2°45.3 9 355 15.6 100910 71
2003-09-08 07:31:11 51°14.83 2°45.27 8.6 354 15.5 100910 71
2003-09-08 07:31:15 51°14.83 2°45.25 8.7 354 15.5 100910 71
2003-09-08 07:31:21 51°14.82 2°45.21 8.5 354 15.6 100910 71
2003-09-08 07:31:27 51°14.82 2°45.18 8.6 352 15.6 100910 71
2003-09-08 07:31:31 51°14.82 2°45.15 8.5 351 15.6 100910 71
2003-09-08 07:31:35 51°14.82 2°45.13 8.1 354 15.6 100910 71
2003-09-08 07:31:41 51°14.81 2°45.09 8.8 350 15.6 100910 71
2003-09-08 07:31:47 51°14.81 2°45.06 8.6 352 15.6 100910 71
2003-09-08 07:31:51 51°14.81 2°45.03 8.8 349 15.6 100910 71
2003-09-08 07:31:55 51°14.81 2°45.01 8.5 354 15.6 100910 71
2003-09-08 07:32:01 51°14.8 2°44.97 8.7 352 15.7 100910 71
2003-09-08 07:32:05 51°14.8 2°44.95 8.7 353 15.7 100910 71
2003-09-08 07:32:11 51°14.8 2°44.91 9 353 15.7 100910 71
2003-09-08 07:32:17 51°14.79 2°44.88 8.8 353 15.7 100910 71
2003-09-08 07:32:21 51°14.79 2°44.85 8.8 351 15.7 100910 72
2003-09-08 07:32:27 51°14.79 2°44.82 8.4 355 15.7 100910 72
2003-09-08 07:32:31 51°14.79 2°44.79 8.4 356 15.7 100910 72
2003-09-08 07:32:35 51°14.78 2°44.77 8.6 358 15.7 100910 72
2003-09-08 07:32:41 51°14.78 2°44.73 9.4 358 15.7 100910 72
2003-09-08 07:32:47 51°14.78 2°44.7 8.4 356 15.7 100910 72
2003-09-08 07:32:51 51°14.78 2°44.67 9.2 354 15.7 100910 71
2003-09-08 07:32:55 51°14.77 2°44.65 9.5 357 15.7 100910 71
2003-09-08 07:33:01 51°14.77 2°44.61 9 358 15.7 100910 71
2003-09-08 07:33:07 51°14.77 2°44.57 8.8 358 15.7 100910 71
2003-09-08 07:33:11 51°14.76 2°44.55 8.9 358 15.7 100910 71
2003-09-08 07:33:15 51°14.76 2°44.52 9.1 355 15.7 100910 71
2003-09-08 07:33:21 51°14.76 2°44.49 8.8 351 15.7 100910 71
2003-09-08 07:33:27 51°14.75 2°44.45 9 351 15.7 100910 71
2003-09-08 07:33:31 51°14.75 2°44.42 8.3 349 15.7 100910 71
2003-09-08 07:33:35 51°14.75 2°44.4 9.5 350 15.7 100910 71
2003-09-08 07:33:41 51°14.75 2°44.36 9.7 355 15.7 100920 71
2003-09-08 07:33:47 51°14.74 2°44.32 9.3 357 15.7 100920 71
2003-09-08 07:33:51 51°14.74 2°44.29 9.2 354 15.7 100910 71
2003-09-08 07:33:55 51°14.74 2°44.27 9.6 359 15.7 100910 71
2003-09-08 07:34:01 51°14.73 2°44.23 9.2 354 15.8 100910 72
2003-09-08 07:34:05 51°14.73 2°44.2 9.5 354 15.8 100910 72
2003-09-08 07:34:11 51°14.73 2°44.17 9.4 353 15.7 100910 71
2003-09-08 07:34:15 51°14.73 2°44.14 9.3 352 15.7 100910 71
2003-09-08 07:34:21 51°14.72 2°44.1 8.9 355 15.7 100910 71
2003-09-08 07:34:27 51°14.72 2°44.06 9.4 354 15.7 100910 71
2003-09-08 07:34:31 51°14.72 2°44.04 9.3 356 15.8 100910 71
2003-09-08 07:34:35 51°14.71 2°44.01 9.8 353 15.8 100910 71
2003-09-08 07:34:41 51°14.71 2°43.97 9.5 351 15.8 100910 72
2003-09-08 07:34:45 51°14.71 2°43.95 9.7 353 15.8 100910 72
2003-09-08 07:34:51 51°14.71 2°43.91 9.6 352 15.8 100910 72
2003-09-08 07:34:55 51°14.7 2°43.88 9.9 351 15.8 100910 72
2003-09-08 07:35:01 51°14.7 2°43.85 9.4 352 15.8 100910 71
2003-09-08 07:35:07 51°14.7 2°43.81 9.5 354 15.8 100910 71
2003-09-08 07:35:11 51°14.69 2°43.78 9.4 356 15.7 100910 71
2003-09-08 07:35:17 51°14.69 2°43.74 9 352 15.7 100910 71
2003-09-08 07:35:21 51°14.69 2°43.72 8.7 351 15.8 100910 71
2003-09-08 07:35:27 51°14.68 2°43.68 8.6 351 15.8 100910 71
2003-09-08 07:35:31 51°14.68 2°43.65 10.3 352 15.8 100910 71
2003-09-08 07:35:35 51°14.68 2°43.63 9 349 15.8 100910 71
2003-09-08 07:35:41 51°14.68 2°43.59 9.3 352 15.8 100910 71
2003-09-08 07:35:47 51°14.67 2°43.55 9.4 352 15.8 100910 71
2003-09-08 07:35:51 51°14.67 2°43.52 9.3 351 15.7 100910 71
2003-09-08 07:35:55 51°14.67 2°43.5 9.1 349 15.7 100910 71
2003-09-08 07:36:01 51°14.67 2°43.46 8.7 351 15.8 100910 71
2003-09-08 07:36:07 51°14.66 2°43.42 9.6 350 15.8 100910 71
2003-09-08 07:36:11 51°14.66 2°43.39 9.1 352 15.8 100910 71
2003-09-08 07:36:15 51°14.66 2°43.37 9.5 351 15.8 100910 71
2003-09-08 07:36:21 51°14.65 2°43.33 9.2 354 15.8 100910 71
2003-09-08 07:36:27 51°14.65 2°43.29 9.7 348 15.8 100910 71
2003-09-08 07:36:31 51°14.65 2°43.27 9.1 351 15.8 100910 72
2003-09-08 07:36:35 51°14.65 2°43.24 9.2 348 15.8 100910 72
2003-09-08 07:36:41 51°14.64 2°43.2 9.7 355 15.8 100910 72
2003-09-08 07:36:47 51°14.64 2°43.16 10.3 350 15.8 100910 72
2003-09-08 07:36:51 51°14.64 2°43.14 10.3 345 15.8 100910 72
2003-09-08 07:36:55 51°14.64 2°43.11 10.3 347 15.8 100910 72
2003-09-08 07:37:01 51°14.63 2°43.07 9.7 349 15.8 100910 72
2003-09-08 07:37:07 51°14.63 2°43.04 9.5 348 15.8 100910 72
2003-09-08 07:37:11 51°14.63 2°43.01 9.2 349 15.8 100910 72
2003-09-08 07:37:15 51°14.62 2°42.98 9.7 353 15.8 100910 72
2003-09-08 07:37:21 51°14.62 2°42.95 10 351 15.8 100910 72
2003-09-08 07:37:27 51°14.62 2°42.91 9.7 349 15.8 100910 72
2003-09-08 07:37:31 51°14.62 2°42.88 9.2 351 15.8 100900 71
2003-09-08 07:37:37 51°14.61 2°42.85 10.5 350 15.8 100900 71
2003-09-08 07:37:41 51°14.61 2°42.82 9.9 348 15.8 100910 71
2003-09-08 07:37:47 51°14.61 2°42.78 9.2 349 15.8 100910 71
2003-09-08 07:37:51 51°14.6 2°42.76 9.6 345 15.8 100910 71
2003-09-08 07:37:55 51°14.6 2°42.73 9.8 350 15.8 100910 71
2003-09-08 07:38:01 51°14.6 2°42.69 10.2 352 15.8 100910 71
2003-09-08 07:38:07 51°14.59 2°42.66 10.3 349 15.8 100910 71
2003-09-08 07:38:11 51°14.59 2°42.63 10.2 349 15.8 100900 71
2003-09-08 07:38:15 51°14.59 2°42.61 10 349 15.8 100900 71
2003-09-08 07:38:21 51°14.59 2°42.57 10 351 15.8 100910 71
2003-09-08 07:38:25 51°14.59 2°42.54 10.3 347 15.8 100910 71
2003-09-08 07:38:31 51°14.58 2°42.51 9.8 348 15.8 100900 72
2003-09-08 07:38:35 51°14.58 2°42.48 10.1 346 15.8 100900 72
2003-09-08 07:38:41 51°14.58 2°42.44 9.4 347 15.9 100900 72
2003-09-08 07:38:47 51°14.57 2°42.4 10.4 345 15.9 100900 72
2003-09-08 07:38:51 51°14.57 2°42.38 10.1 347 15.9 100900 72
2003-09-08 07:38:55 51°14.57 2°42.35 9.9 346 15.9 100900 72
2003-09-08 07:39:01 51°14.57 2°42.32 9.4 346 15.9 100910 72
2003-09-08 07:39:07 51°14.56 2°42.28 9.6 349 15.9 100910 72
2003-09-08 07:39:11 51°14.56 2°42.25 9.6 347 15.9 100900 72
2003-09-08 07:39:15 51°14.56 2°42.23 10.2 350 15.9 100900 72
2003-09-08 07:39:21 51°14.55 2°42.19 10 347 15.9 100900 72
2003-09-08 07:39:25 51°14.55 2°42.17 10.3 349 15.9 100900 72
2003-09-08 07:39:31 51°14.55 2°42.13 9.5 348 15.9 100900 72
2003-09-08 07:39:35 51°14.55 2°42.1 9.5 349 15.9 100900 72
2003-09-08 07:39:41 51°14.54 2°42.07 9 349 15.9 100900 72
2003-09-08 07:39:47 51°14.54 2°42.03 9.6 350 15.9 100900 72
2003-09-08 07:39:51 51°14.54 2°42 8.8 350 15.9 100910 72
2003-09-08 07:39:55 51°14.54 2°41.98 9.1 349 15.9 100910 72
2003-09-08 07:40:01 51°14.53 2°41.94 9.4 346 15.9 100900 72
2003-09-08 07:40:05 51°14.53 2°41.92 9.9 344 15.9 100900 72
2003-09-08 07:40:11 51°14.53 2°41.88 10.1 345 15.9 100910 72
2003-09-08 07:40:15 51°14.52 2°41.86 10 346 15.9 100910 72
2003-09-08 07:40:21 51°14.52 2°41.82 9.6 346 15.9 100910 72
2003-09-08 07:40:27 51°14.52 2°41.78 9.5 348 15.9 100910 72
2003-09-08 07:40:31 51°14.52 2°41.76 10.2 347 15.9 100910 72
2003-09-08 07:40:35 51°14.51 2°41.73 9.5 350 15.9 100910 72
2003-09-08 07:40:41 51°14.51 2°41.69 10.1 351 15.9 100910 72
2003-09-08 07:40:47 51°14.51 2°41.66 9.8 349 15.9 100910 72
2003-09-08 07:40:51 51°14.51 2°41.63 9.3 348 15.9 100910 72
2003-09-08 07:40:55 51°14.5 2°41.61 9.4 347 15.9 100910 72
2003-09-08 07:41:01 51°14.5 2°41.57 8.5 348 15.9 100910 72
2003-09-08 07:41:07 51°14.5 2°41.53 9 347 15.9 100910 72
2003-09-08 07:41:11 51°14.49 2°41.51 9.1 345 15.9 100900 73
2003-09-08 07:41:15 51°14.49 2°41.48 9.7 350 15.9 100900 73
2003-09-08 07:41:21 51°14.49 2°41.45 9 347 15.9 100910 73
2003-09-08 07:41:27 51°14.49 2°41.41 9.4 347 15.9 100910 73
2003-09-08 07:41:31 51°14.48 2°41.38 9.7 347 15.9 100910 72
2003-09-08 07:41:35 51°14.48 2°41.36 9.6 345 15.9 100910 72
2003-09-08 07:41:41 51°14.48 2°41.32 9.1 348 15.9 100910 73
2003-09-08 07:41:45 51°14.48 2°41.3 8.7 345 15.9 100910 73
2003-09-08 07:41:51 51°14.48 2°41.26 8.9 350 15.9 100910 73
2003-09-08 07:41:57 51°14.48 2°41.22 8.6 344 15.9 100910 73
2003-09-08 07:42:01 51°14.48 2°41.2 8 345 15.9 100910 73
2003-09-08 07:42:07 51°14.48 2°41.16 7.9 338 15.9 100910 73
2003-09-08 07:42:11 51°14.48 2°41.14 7.8 342 15.9 100910 72
2003-09-08 07:42:15 51°14.48 2°41.11 7.1 340 15.9 100910 72
2003-09-08 07:42:21 51°14.48 2°41.07 8.1 338 15.9 100910 73
2003-09-08 07:42:27 51°14.48 2°41.04 8 345 15.9 100910 73
2003-09-08 07:42:31 51°14.49 2°41.01 9.3 342 15.9 100910 73
2003-09-08 07:42:35 51°14.49 2°40.99 8.6 345 15.9 100910 73
2003-09-08 07:42:41 51°14.49 2°40.95 8.6 341 15.9 100910 73
2003-09-08 07:42:47 51°14.49 2°40.91 8.6 340 15.9 100910 73
2003-09-08 07:42:51 51°14.49 2°40.89 8.5 343 15.9 100910 73
2003-09-08 07:42:55 51°14.49 2°40.86 8.3 344 15.9 100910 73
2003-09-08 07:43:01 51°14.5 2°40.83 8.7 344 15.9 100910 73
2003-09-08 07:43:07 51°14.5 2°40.79 9 345 15.9 100910 73
2003-09-08 07:43:11 51°14.5 2°40.77 8.6 344 15.9 100910 74
2003-09-08 07:43:15 51°14.5 2°40.74 9.1 344 15.9 100910 74
2003-09-08 07:43:21 51°14.51 2°40.71 9.1 343 15.9 100910 73
2003-09-08 07:43:25 51°14.51 2°40.68 8.2 345 15.9 100910 73
2003-09-08 07:43:31 51°14.52 2°40.65 7.8 342 15.9 100910 73
2003-09-08 07:43:35 51°14.52 2°40.62 7.7 342 15.9 100910 73
2003-09-08 07:43:41 51°14.53 2°40.59 7.9 338 15.9 100910 72
2003-09-08 07:43:47 51°14.54 2°40.55 8 337 15.9 100910 72
2003-09-08 07:43:51 51°14.54 2°40.53 7.8 336 15.9 100910 72
2003-09-08 07:43:55 51°14.55 2°40.51 7.9 342 15.9 100910 72
2003-09-08 07:44:01 51°14.56 2°40.47 7.7 341 15.9 100910 72
2003-09-08 07:44:07 51°14.56 2°40.44 8.3 340 15.9 100910 72
2003-09-08 07:44:11 51°14.57 2°40.41 8.2 337 15.9 100910 72
2003-09-08 07:44:15 51°14.57 2°40.39 7.4 335 15.9 100910 72
2003-09-08 07:44:21 51°14.58 2°40.36 7.1 332 15.9 100910 72
2003-09-08 07:44:27 51°14.59 2°40.33 7 334 15.9 100910 72
2003-09-08 07:44:31 51°14.6 2°40.31 7.4 334 15.9 100910 72
2003-09-08 07:44:35 51°14.61 2°40.28 7 334 15.9 100910 72
2003-09-08 07:44:41 51°14.62 2°40.25 6.8 330 15.9 100910 71
2003-09-08 07:44:47 51°14.63 2°40.22 6.4 332 15.9 100910 71
2003-09-08 07:44:51 51°14.64 2°40.2 6.9 333 15.9 100910 71
2003-09-08 07:44:55 51°14.65 2°40.18 6.7 338 15.9 100910 71
2003-09-08 07:45:01 51°14.66 2°40.15 6.8 336 15.9 100910 71
2003-09-08 07:45:07 51°14.67 2°40.12 7 334 15.9 100910 71
2003-09-08 07:45:11 51°14.68 2°40.1 7 334 15.9 100910 71
2003-09-08 07:45:15 51°14.69 2°40.08 7.1 332 15.9 100910 71
2003-09-08 07:45:21 51°14.71 2°40.06 6.6 330 15.9 100910 71
2003-09-08 07:45:27 51°14.72 2°40.03 7 337 15.9 100910 71
2003-09-08 07:45:31 51°14.73 2°40.01 6.2 338 15.9 100910 71
2003-09-08 07:45:37 51°14.75 2°39.98 5.5 335 15.9 100910 71
2003-09-08 07:45:41 51°14.76 2°39.97 3.3 334 15.9 100910 71
2003-09-08 07:45:45 51°14.77 2°39.95 5.7 337 15.9 100910 71
2003-09-08 07:45:51 51°14.78 2°39.92 5.7 336 16 100910 70
2003-09-08 07:45:57 51°14.8 2°39.9 5.5 333 16 100910 70
2003-09-08 07:46:01 51°14.81 2°39.88 5.6 333 16 100920 70
2003-09-08 07:46:07 51°14.83 2°39.86 5.5 332 16 100920 70
2003-09-08 07:46:11 51°14.84 2°39.84 5.3 332 16 100910 70
2003-09-08 07:46:15 51°14.85 2°39.83 5 336 16 100910 70
2003-09-08 07:46:21 51°14.87 2°39.81 5.4 336 16 100910 70
2003-09-08 07:46:27 51°14.89 2°39.79 5.2 333 16 100910 70
2003-09-08 07:46:31 51°14.9 2°39.78 5.2 336 16 100910 70
2003-09-08 07:46:35 51°14.91 2°39.76 5.6 337 16 100910 70
2003-09-08 07:46:41 51°14.93 2°39.74 5 332 16 100920 70
2003-09-08 07:46:47 51°14.95 2°39.72 5.1 338 16 100920 70
2003-09-08 07:46:51 51°14.96 2°39.71 4.8 334 16 100920 69
2003-09-08 07:46:55 51°14.97 2°39.7 5.5 337 16 100920 69
2003-09-08 07:47:01 51°14.99 2°39.68 2.6 340 16 100910 69
2003-09-08 07:47:07 51°15.01 2°39.66 5.2 339 16 100910 69
2003-09-08 07:47:11 51°15.03 2°39.66 4.7 341 16 100920 69
2003-09-08 07:47:17 51°15.05 2°39.65 5 334 16 100920 69
2003-09-08 07:47:21 51°15.06 2°39.64 4.2 334 16.1 100910 69
2003-09-08 07:47:27 51°15.08 2°39.63 4.3 341 16.1 100910 69
2003-09-08 07:47:31 51°15.1 2°39.63 3.7 340 16.1 100920 69
2003-09-08 07:47:35 51°15.11 2°39.63 3.6 341 16.1 100920 69
2003-09-08 07:47:41 51°15.13 2°39.62 3.6 345 16.1 100920 69
2003-09-08 07:47:47 51°15.15 2°39.62 3.3 345 16.1 100920 69
2003-09-08 07:47:51 51°15.17 2°39.62 3.3 345 16.1 100920 68
2003-09-08 07:47:55 51°15.18 2°39.62 3.5 344 16.1 100920 68
2003-09-08 07:48:01 51°15.2 2°39.62 3.4 345 16 100920 67
2003-09-08 07:48:05 51°15.22 2°39.62 3.3 349 16 100920 67
2003-09-08 07:48:11 51°15.24 2°39.62 3.5 352 16 100920 67
2003-09-08 07:48:15 51°15.25 2°39.62 4 345 16 100920 67
2003-09-08 07:48:21 51°15.28 2°39.62 3.9 347 16 100920 67
2003-09-08 07:48:27 51°15.3 2°39.62 4.9 346 16 100920 67
2003-09-08 07:48:31 51°15.31 2°39.62 4.3 350 16 100920 67
2003-09-08 07:48:35 51°15.33 2°39.62 3.8 348 16 100920 67
2003-09-08 07:48:41 51°15.35 2°39.62 3.7 345 16.1 100920 67
2003-09-08 07:48:45 51°15.36 2°39.62 4 348 16.1 100920 67
2003-09-08 07:48:51 51°15.38 2°39.62 3.6 342 16.1 100920 67
2003-09-08 07:48:55 51°15.4 2°39.62 4.4 351 16.1 100920 67
2003-09-08 07:49:01 51°15.42 2°39.63 3.8 349 16.1 100910 67
2003-09-08 07:49:07 51°15.44 2°39.63 3.7 344 16.1 100910 67
2003-09-08 07:49:11 51°15.45 2°39.63 3.5 351 16.1 100920 67
2003-09-08 07:49:15 51°15.47 2°39.63 4.1 356 16.1 100920 67
2003-09-08 07:49:21 51°15.49 2°39.64 3.5 1 16.1 100920 67
2003-09-08 07:49:27 51°15.51 2°39.64 3.7 2 16.1 100920 67
2003-09-08 07:49:31 51°15.52 2°39.64 4.4 349 16.1 100910 67
2003-09-08 07:49:35 51°15.54 2°39.65 4.1 349 16.1 100910 67
2003-09-08 07:49:41 51°15.56 2°39.65 3.8 349 16.1 100910 67
2003-09-08 07:49:47 51°15.58 2°39.65 3.8 344 16.2 100910 67
2003-09-08 07:49:51 51°15.6 2°39.66 4.2 339 16.2 100910 67
2003-09-08 07:49:55 51°15.61 2°39.66 3.9 339 16.2 100910 67
2003-09-08 07:50:01 51°15.63 2°39.66 4 347 16.3 100920 68
2003-09-08 07:50:07 51°15.65 2°39.67 3.7 345 16.3 100920 68
2003-09-08 07:50:11 51°15.66 2°39.67 3.8 348 16.2 100910 68
2003-09-08 07:50:17 51°15.69 2°39.68 3.7 348 16.2 100910 68
2003-09-08 07:50:21 51°15.7 2°39.69 3.7 350 16.2 100910 68
2003-09-08 07:50:27 51°15.72 2°39.69 4.2 355 16.2 100910 68
2003-09-08 07:50:31 51°15.73 2°39.7 4.3 356 16.2 100920 68
2003-09-08 07:50:35 51°15.75 2°39.71 4.2 359 16.2 100920 68
2003-09-08 07:50:41 51°15.77 2°39.71 4 360 16.2 100920 67
2003-09-08 07:50:47 51°15.79 2°39.72 3.9 359 16.2 100920 67
2003-09-08 07:50:51 51°15.8 2°39.72 3.9 356 16.2 100920 67
2003-09-08 07:50:55 51°15.82 2°39.73 3.6 355 16.2 100920 67
2003-09-08 07:51:01 51°15.84 2°39.74 3.6 354 16.2 100910 67
2003-09-08 07:51:07 51°15.86 2°39.74 3.6 355 16.2 100910 67
2003-09-08 07:51:11 51°15.87 2°39.75 3.3 352 16.2 100910 67
2003-09-08 07:51:15 51°15.89 2°39.75 3.3   16.2 100910 67
2003-09-08 07:51:21 51°15.91 2°39.76 3.2 3 16.2 100910 67
2003-09-08 07:51:27 51°15.93 2°39.77 3.4 358 16.2 100920 67
2003-09-08 07:51:31 51°15.94 2°39.77 3.6 357 16.2 100920 67
2003-09-08 07:51:35 51°15.96 2°39.78 3.2 358 16.2 100920 67
2003-09-08 07:51:41 51°15.98 2°39.78 3.6 5 16.2 100920 67
2003-09-08 07:51:47 51°16 2°39.79 3.2 350 16.2 100920 67
2003-09-08 07:51:51 51°16.01 2°39.8 2.9 348 16.2 100920 67
2003-09-08 07:51:55 51°16.03 2°39.8 3.2 348 16.2 100920 67
2003-09-08 07:52:01 51°16.05 2°39.81 3.8 356 16.2 100910 67
2003-09-08 07:52:05 51°16.06 2°39.81 3.4 351 16.2 100910 67
2003-09-08 07:52:11 51°16.08 2°39.82 3.3 350 16.2 100920 67
2003-09-08 07:52:15 51°16.1 2°39.83 3.2 4 16.2 100920 67
2003-09-08 07:52:21 51°16.12 2°39.83 3.4 355 16.2 100920 67
2003-09-08 07:52:27 51°16.14 2°39.84 3.2 353 16.2 100920 67
2003-09-08 07:52:31 51°16.15 2°39.84 3.1 360 16.2 100920 67
2003-09-08 07:52:35 51°16.17 2°39.85 2.9 2 16.2 100920 67
2003-09-08 07:52:41 51°16.19 2°39.86 3.3 5 16.2 100910 67
2003-09-08 07:52:47 51°16.21 2°39.86 3.1 360 16.2 100910 67
2003-09-08 07:52:51 51°16.22 2°39.87 3.3 4 16.3 100910 67
2003-09-08 07:52:55 51°16.24 2°39.87 3.3 356 16.3 100910 67
2003-09-08 07:53:01 51°16.26 2°39.88 3.3 359 16.2 100910 67
2003-09-08 07:53:07 51°16.28 2°39.89 2.7 352 16.2 100910 67
2003-09-08 07:53:11 51°16.29 2°39.89 3.1 358 16.3 100910 67
2003-09-08 07:53:15 51°16.31 2°39.9 3.5   16.3 100910 67
2003-09-08 07:53:21 51°16.33 2°39.9 3.6   16.3 100920 67
2003-09-08 07:53:27 51°16.35 2°39.91 4.4 358 16.3 100920 67
2003-09-08 07:53:31 51°16.36 2°39.91 4.5 360 16.3 100920 68
2003-09-08 07:53:35 51°16.38 2°39.92 4.2 356 16.3 100920 68
2003-09-08 07:53:41 51°16.4 2°39.93 4.2 360 16.3 100920 68
2003-09-08 07:53:47 51°16.42 2°39.93 4.4 4 16.3 100920 68
2003-09-08 07:53:51 51°16.43 2°39.94 3.8 4 16.3 100920 68
2003-09-08 07:53:55 51°16.45 2°39.94 3.7 4 16.3 100920 68
2003-09-08 07:54:01 51°16.47 2°39.95 4.2 6 16.3 100920 68
2003-09-08 07:54:07 51°16.49 2°39.95 4.3 8 16.3 100920 68
2003-09-08 07:54:11 51°16.5 2°39.96 4.4 9 16.3 100910 68
2003-09-08 07:54:17 51°16.52 2°39.97 3.8 12 16.3 100910 68
2003-09-08 07:54:21 51°16.54 2°39.97 3.9 7 16.4 100910 68
2003-09-08 07:54:25 51°16.55 2°39.98 3.7 12 16.4 100910 68
2003-09-08 07:54:31 51°16.57 2°39.98 3.4 13 16.4 100920 68
2003-09-08 07:54:35 51°16.59 2°39.99 3.8 13 16.4 100920 68
2003-09-08 07:54:41 51°16.61 2°39.99 3.3 10 16.4 100910 68
2003-09-08 07:54:47 51°16.63 2°40 3.8 12 16.4 100910 68
2003-09-08 07:54:51 51°16.64 2°40.01 3.6 14 16.4 100920 68
2003-09-08 07:54:55 51°16.65 2°40.01 3.5 11 16.4 100920 68
2003-09-08 07:55:01 51°16.68 2°40.02 3.5 14 16.4 100920 68
2003-09-08 07:55:07 51°16.7 2°40.03 3.6 17 16.4 100920 68
2003-09-08 07:55:11 51°16.71 2°40.04 3.3 17 16.4 100920 68
2003-09-08 07:55:15 51°16.72 2°40.04 3.2 17 16.4 100920 68
2003-09-08 07:55:21 51°16.74 2°40.05 3.3 11 16.4 100920 68
2003-09-08 07:55:27 51°16.76 2°40.06 3.9 10 16.4 100920 68
2003-09-08 07:55:31 51°16.78 2°40.07 3.6 10 16.4 100920 68
2003-09-08 07:55:35 51°16.79 2°40.07 3.6 5 16.4 100920 68
2003-09-08 07:55:41 51°16.81 2°40.08 3.6 7 16.4 100920 68
2003-09-08 07:55:47 51°16.83 2°40.09 3.6 359 16.4 100920 68
2003-09-08 07:55:51 51°16.85 2°40.1 3.5 5 16.4 100920 68
2003-09-08 07:55:55 51°16.86 2°40.11 3.7 358 16.4 100920 68
2003-09-08 07:56:01 51°16.88 2°40.12 3.4 356 16.4 100920 68
2003-09-08 07:56:07 51°16.9 2°40.13 4 355 16.4 100920 68
2003-09-08 07:56:11 51°16.91 2°40.13 4.3 7 16.4 100920 69
2003-09-08 07:56:15 51°16.93 2°40.14 4.8 6 16.4 100920 69
2003-09-08 07:56:21 51°16.95 2°40.15 4.9 4 16.4 100920 69
2003-09-08 07:56:27 51°16.97 2°40.17 4.3 12 16.4 100920 69
2003-09-08 07:56:31 51°16.98 2°40.17 3.5 18 16.4 100920 69
2003-09-08 07:56:35 51°16.99 2°40.18 3.1 16 16.4 100920 69
2003-09-08 07:56:41 51°17.01 2°40.19 2.6 15 16.4 100920 69
2003-09-08 07:56:45 51°17.02 2°40.19 2.4 7 16.4 100920 69
2003-09-08 07:56:51 51°17.03 2°40.2 1.7 6 16.5 100920 69
2003-09-08 07:56:55 51°17.04 2°40.2 1.7 4 16.5 100920 69
2003-09-08 07:57:01 51°17.05 2°40.21 1.3 359 16.5 100920 69
2003-09-08 07:57:07 51°17.07 2°40.21 1.2 355 16.5 100920 69
2003-09-08 07:57:11 51°17.07 2°40.22 1.2 350 16.5 100920 69
2003-09-08 07:57:15 51°17.08 2°40.22 1.1 342 16.5 100920 69
2003-09-08 07:57:21 51°17.09 2°40.22 0.9 334 16.4 100920 69
2003-09-08 07:57:27 51°17.1 2°40.22 0.7 328 16.4 100920 69
2003-09-08 07:57:31 51°17.1 2°40.22 0.5 328 16.5 100920 69
2003-09-08 07:57:35 51°17.11 2°40.23 0.6 328 16.5 100920 69
2003-09-08 07:57:41 51°17.12 2°40.23 0.7 42 16.5 100920 69
2003-09-08 07:57:47 51°17.13 2°40.23 0.7 302 16.5 100920 69
2003-09-08 07:57:51 51°17.13 2°40.23 0.5 301 16.5 100920 69
2003-09-08 07:57:55 51°17.14 2°40.23 0.3 301 16.5 100920 69
2003-09-08 07:58:01 51°17.14 2°40.24 0.2 299 16.5 100920 69
2003-09-08 07:58:07 51°17.15 2°40.24 0.2 295 16.5 100920 69
2003-09-08 07:58:11 51°17.15 2°40.24 0.1 294 16.5 100920 69
2003-09-08 07:58:15 51°17.16 2°40.25 0.1 289 16.5 100920 69
2003-09-08 07:58:21 51°17.16 2°40.25   288 16.5 100920 69
2003-09-08 07:58:27 51°17.17 2°40.25   285 16.6 100920 69
2003-09-08 07:58:31 51°17.17 2°40.26 0.9 163 16.6 100920 69
2003-09-08 07:58:35 51°17.17 2°40.26 1 160 16.6 100920 69
2003-09-08 07:58:41 51°17.18 2°40.26 1.3 139 16.6 100920 69
2003-09-08 07:58:47 51°17.18 2°40.27 1.1 140 16.6 100920 69
2003-09-08 07:58:51 51°17.18 2°40.27 1 136 16.6 100920 69
2003-09-08 07:58:55 51°17.19 2°40.27 0.9 134 16.6 100920 69
2003-09-08 07:59:01 51°17.19 2°40.28 1.2 136 16.6 100920 69
2003-09-08 07:59:07 51°17.19 2°40.28 1.4 147 16.6 100920 69
2003-09-08 07:59:11 51°17.2 2°40.29 1.4 147 16.6 100920 69
2003-09-08 07:59:15 51°17.2 2°40.29 1.5 140 16.6 100920 69
2003-09-08 07:59:21 51°17.2 2°40.29 2.2 135 16.7 100920 69
2003-09-08 07:59:27 51°17.21 2°40.3 2 136 16.7 100920 69
2003-09-08 07:59:31 51°17.21 2°40.3 2.3 124 16.7 100920 69
2003-09-08 07:59:35 51°17.21 2°40.31 2.1 125 16.7 100920 69
2003-09-08 07:59:41 51°17.21 2°40.31 2.1 127 16.7 100920 69
2003-09-08 07:59:47 51°17.22 2°40.32 2 128 16.7 100920 69
2003-09-08 07:59:51 51°17.22 2°40.32 1.9 133 16.7 100920 69
2003-09-08 07:59:55 51°17.22 2°40.32 2 132 16.7 100920 69
2003-09-08 08:00:01 51°17.23 2°40.33 1.6 135 16.8 100920 69
2003-09-08 08:00:07 51°17.23 2°40.33 1.7 128 16.8 100920 69
2003-09-08 08:00:11 51°17.23 2°40.34 1.9 125 16.8 100920 69
2003-09-08 08:00:15 51°17.23 2°40.34 2 131 16.8 100920 69
2003-09-08 08:00:21 51°17.24 2°40.34 2.4 120 16.8 100910 68
2003-09-08 08:00:27 51°17.24 2°40.35 2.2 129 16.8 100910 68
2003-09-08 08:00:31 51°17.24 2°40.35 2.3 133 16.8 100920 69
2003-09-08 08:00:35 51°17.25 2°40.36 2.1 138 16.8 100920 69
2003-09-08 08:00:41 51°17.25 2°40.36 2.4 136 16.8 100920 69
2003-09-08 08:00:47 51°17.25 2°40.37 2.1 140 16.8 100920 69
2003-09-08 08:00:51 51°17.26 2°40.37 2.5 138 16.9 100920 68
2003-09-08 08:00:55 51°17.26 2°40.37 2.6 141 16.9 100920 68
2003-09-08 08:01:01 51°17.26 2°40.38 2.4 150 16.9 100910 68
2003-09-08 08:01:07 51°17.27 2°40.38 2.4 151 16.9 100910 68
2003-09-08 08:01:11 51°17.27 2°40.38 2.6 151 16.9 100920 68
2003-09-08 08:01:17 51°17.27 2°40.39 2 150 16.9 100920 68
2003-09-08 08:01:21 51°17.28 2°40.39 1.8 151 16.9 100920 68
2003-09-08 08:01:25 51°17.28 2°40.39 1.9 157 16.9 100920 68
2003-09-08 08:01:31 51°17.28 2°40.4 1.9 160 16.9 100920 68
2003-09-08 08:01:35 51°17.29 2°40.4 1.9 166 16.9 100920 68
2003-09-08 08:01:41 51°17.29 2°40.4 1.9 167 16.9 100910 68
2003-09-08 08:01:47 51°17.29 2°40.4 1.5 172 16.9 100910 68
2003-09-08 08:01:51 51°17.3 2°40.4 1.8 173 16.9 100920 68
2003-09-08 08:01:55 51°17.3 2°40.4 1.7 177 16.9 100920 68
2003-09-08 08:02:01 51°17.3 2°40.4 1.6 181 16.9 100910 67
2003-09-08 08:02:07 51°17.3 2°40.4 2.1 210 16.9 100910 67
2003-09-08 08:02:11 51°17.3 2°40.4 2 204 16.8 100910 67
2003-09-08 08:02:17 51°17.3 2°40.4 2.4 187 16.8 100910 67
2003-09-08 08:02:21 51°17.3 2°40.4 2 197 16.8 100920 67
2003-09-08 08:02:27 51°17.3 2°40.4 1.9 195 16.8 100920 67
2003-09-08 08:02:31 51°17.3 2°40.4 1.7 208 16.8 100920 67
2003-09-08 08:02:35 51°17.3 2°40.4 1.6 186 16.8 100920 67
2003-09-08 08:02:41 51°17.3 2°40.4 2.1 208 16.8 100920 67
2003-09-08 08:02:45 51°17.31 2°40.4 2.5 207 16.8 100920 67
2003-09-08 08:02:51 51°17.31 2°40.4 2.5 211 16.8 100920 67
2003-09-08 08:02:55 51°17.31 2°40.4 1.9 194 16.8 100920 67
2003-09-08 08:03:01 51°17.31 2°40.4 2.1 205 16.8 100920 67
2003-09-08 08:03:05 51°17.31 2°40.4 2.7 206 16.8 100920 67
2003-09-08 08:03:11 51°17.31 2°40.4 2.5 205 16.8 100910 66
2003-09-08 08:03:15 51°17.31 2°40.4 2.5 206 16.8 100910 66
2003-09-08 08:03:21 51°17.31 2°40.4 2.8 207 16.8 100910 66
2003-09-08 08:03:27 51°17.31 2°40.4 3.2 200 16.8 100910 66
2003-09-08 08:03:31 51°17.31 2°40.4 2.4 202 16.8 100920 66
2003-09-08 08:03:37 51°17.31 2°40.4 2.3 203 16.8 100920 66
2003-09-08 08:03:41 51°17.31 2°40.4 2.7 208 16.8 100910 66
2003-09-08 08:03:45 51°17.31 2°40.39 3 205 16.8 100910 66
2003-09-08 08:03:51 51°17.31 2°40.39 2.2 203 16.8 100910 66
2003-09-08 08:03:57 51°17.31 2°40.39 2.5 208 16.8 100910 66
2003-09-08 08:04:01 51°17.31 2°40.39 2.5 207 16.7 100920 66
2003-09-08 08:04:07 51°17.31 2°40.39 3 209 16.7 100920 66
2003-09-08 08:04:11 51°17.31 2°40.39 2.9 220 16.7 100920 66
2003-09-08 08:04:15 51°17.31 2°40.39 3.4 217 16.7 100920 66
2003-09-08 08:04:21 51°17.31 2°40.39 3.2 224 16.7 100910 66
2003-09-08 08:04:27 51°17.31 2°40.39 2.8 221 16.7 100910 66
2003-09-08 08:04:31 51°17.31 2°40.39 2.6 220 16.7 100910 66
2003-09-08 08:04:35 51°17.31 2°40.39 2.8 222 16.7 100910 66
2003-09-08 08:04:41 51°17.32 2°40.39 2.9 223 16.7 100920 66
2003-09-08 08:04:47 51°17.32 2°40.39 3 224 16.7 100920 66
2003-09-08 08:04:51 51°17.32 2°40.38 3.1 223 16.7 100910 66
2003-09-08 08:04:55 51°17.32 2°40.38 2.7 224 16.7 100910 66
2003-09-08 08:05:01 51°17.32 2°40.38 2.6 232 16.7 100910 66
2003-09-08 08:05:07 51°17.32 2°40.38 2.7 233 16.7 100910 66
2003-09-08 08:05:11 51°17.32 2°40.38 2.5 234 16.6 100920 66
2003-09-08 08:05:15 51°17.32 2°40.38 3 226 16.6 100920 66
2003-09-08 08:05:21 51°17.32 2°40.38 2.7 228 16.6 100920 66
2003-09-08 08:05:25 51°17.32 2°40.38 2.8 226 16.6 100920 66
2003-09-08 08:05:31 51°17.32 2°40.38 2.4 224 16.6 100910 66
2003-09-08 08:05:35 51°17.32 2°40.38 2.7 224 16.6 100910 66
2003-09-08 08:05:41 51°17.32 2°40.38 2.6 225 16.6 100910 66
2003-09-08 08:05:47 51°17.32 2°40.37 2.6 227 16.6 100910 66
2003-09-08 08:05:51 51°17.32 2°40.37 2.3 223 16.6 100910 66
2003-09-08 08:05:57 51°17.32 2°40.37 2 229 16.6 100910 66
2003-09-08 08:06:01 51°17.32 2°40.37 1.5 236 16.6 100920 67
2003-09-08 08:06:07 51°17.33 2°40.37 0.9 240 16.6 100920 67
2003-09-08 08:06:11 51°17.33 2°40.37 0.7 241 16.6 100920 67
2003-09-08 08:06:15 51°17.33 2°40.36 1.2 280 16.6 100920 67
2003-09-08 08:06:21 51°17.34 2°40.36 1.3 292 16.6 100910 67
2003-09-08 08:06:27 51°17.35 2°40.36 1.1 293 16.6 100910 67
2003-09-08 08:06:31 51°17.35 2°40.35 1.2 294 16.5 100920 67
2003-09-08 08:06:35 51°17.36 2°40.35 1.3 298 16.5 100920 67
2003-09-08 08:06:41 51°17.37 2°40.35 1.9 307 16.5 100910 67
2003-09-08 08:06:47 51°17.38 2°40.35 2.1 308 16.5 100910 67
2003-09-08 08:06:51 51°17.38 2°40.35 1.6 290 16.5 100910 67
2003-09-08 08:06:55 51°17.39 2°40.35 1.7 292 16.5 100910 67
2003-09-08 08:07:01 51°17.4 2°40.35 1.5 284 16.5 100920 67
2003-09-08 08:07:07 51°17.41 2°40.35 1.2 284 16.5 100920 67
2003-09-08 08:07:11 51°17.42 2°40.36 1.1 290 16.6 100910 67
2003-09-08 08:07:15 51°17.42 2°40.36 0.4 320 16.6 100910 67
2003-09-08 08:07:21 51°17.43 2°40.37 0.5 23 16.6 100920 67
2003-09-08 08:07:27 51°17.44 2°40.38 0.8 42 16.6 100920 67
2003-09-08 08:07:31 51°17.44 2°40.39 1.2 59 16.6 100910 68
2003-09-08 08:07:37 51°17.45 2°40.4 1.8 54 16.6 100910 68
2003-09-08 08:07:41 51°17.45 2°40.41 3 55 16.6 100920 68
2003-09-08 08:07:45 51°17.45 2°40.42 3.4 57 16.6 100920 68
2003-09-08 08:07:51 51°17.45 2°40.44 3.9 55 16.6 100920 68
2003-09-08 08:07:55 51°17.45 2°40.45 4 56 16.6 100920 68
2003-09-08 08:08:01 51°17.45 2°40.47 4 57 16.6 100910 68
2003-09-08 08:08:07 51°17.45 2°40.48 4.2 53 16.6 100910 68
2003-09-08 08:08:11 51°17.45 2°40.49 4.1 48 16.6 100910 68
2003-09-08 08:08:17 51°17.44 2°40.5 4.8 42 16.6 100910 68
2003-09-08 08:08:21 51°17.44 2°40.51 5.3 46 16.6 100920 67
2003-09-08 08:08:27 51°17.43 2°40.53 4.8 44 16.6 100920 67
2003-09-08 08:08:31 51°17.42 2°40.54 5.1 41 16.6 100920 67
2003-09-08 08:08:35 51°17.42 2°40.55 4.7 43 16.6 100920 67
2003-09-08 08:08:41 51°17.41 2°40.56 4.7 47 16.6 100910 67
2003-09-08 08:08:47 51°17.4 2°40.57 4.7 49 16.6 100910 67
2003-09-08 08:08:51 51°17.4 2°40.58 4.5 55 16.6 100910 67
2003-09-08 08:08:55 51°17.39 2°40.58 4.8 55 16.6 100910 67
2003-09-08 08:09:01 51°17.39 2°40.6 4.3 59 16.5 100910 67
2003-09-08 08:09:07 51°17.39 2°40.61 4 66 16.5 100910 67
2003-09-08 08:09:11 51°17.38 2°40.62 3.6 69 16.5 100910 67
2003-09-08 08:09:15 51°17.38 2°40.63 2.9 72 16.5 100910 67
2003-09-08 08:09:21 51°17.38 2°40.64 2.6 77 16.5 100910 68
2003-09-08 08:09:27 51°17.39 2°40.66 2 92 16.5 100910 68
2003-09-08 08:09:31 51°17.39 2°40.67 1.7 97 16.5 100910 67
2003-09-08 08:09:35 51°17.39 2°40.67 1.4 96 16.5 100910 67
2003-09-08 08:09:41 51°17.4 2°40.68 0.4 104 16.5 100910 67
2003-09-08 08:09:47 51°17.41 2°40.69 0.5 105 16.5 100910 67
2003-09-08 08:09:51 51°17.41 2°40.69 0.1 100 16.4 100910 67
2003-09-08 08:09:55 51°17.42 2°40.69 0.1 283 16.4 100910 67
2003-09-08 08:10:01 51°17.43 2°40.69 1.8 310 16.4 100910 67
2003-09-08 08:10:05 51°17.43 2°40.69 1.8 316 16.4 100910 67
2003-09-08 08:10:11 51°17.44 2°40.69 1.8 305 16.4 100910 67
2003-09-08 08:10:15 51°17.44 2°40.68 2.8 228 16.4 100910 67
2003-09-08 08:10:21 51°17.45 2°40.67 3.7 314 16.4 100910 68
2003-09-08 08:10:27 51°17.46 2°40.66 3.6 228 16.4 100910 68
2003-09-08 08:10:31 51°17.46 2°40.65 4.1 322 16.5 100910 68
2003-09-08 08:10:35 51°17.46 2°40.64 4.9 329 16.5 100910 68
2003-09-08 08:10:41 51°17.46 2°40.62 4.6 329 16.5 100910 68
2003-09-08 08:10:45 51°17.46 2°40.61 5.4 335 16.5 100910 68
2003-09-08 08:10:51 51°17.46 2°40.59 5.7 342 16.5 100910 68
2003-09-08 08:10:55 51°17.46 2°40.58 5.5 344 16.5 100910 68
2003-09-08 08:11:01 51°17.46 2°40.56 5.2 347 16.5 100910 68
2003-09-08 08:11:07 51°17.46 2°40.55 4.9 347 16.5 100910 68
2003-09-08 08:11:11 51°17.46 2°40.54 4.8 347 16.5 100910 68
2003-09-08 08:11:15 51°17.45 2°40.53 4.4 345 16.5 100910 68
2003-09-08 08:11:21 51°17.45 2°40.52 3.7 345 16.5 100900 68
2003-09-08 08:11:25 51°17.45 2°40.51 3.2 342 16.5 100900 68
2003-09-08 08:11:31 51°17.45 2°40.5 3 341 16.6 100910 67
2003-09-08 08:11:35 51°17.44 2°40.5 2.9 339 16.6 100910 67
2003-09-08 08:11:41 51°17.44 2°40.5 3 335 16.6 100910 67
2003-09-08 08:11:45 51°17.44 2°40.5 2.7 334 16.6 100910 67
2003-09-08 08:11:51 51°17.44 2°40.49 2.5 328 16.6 100910 67
2003-09-08 08:11:55 51°17.44 2°40.49 2.2 343 16.6 100910 67
2003-09-08 08:12:01 51°17.44 2°40.49 2.5 346 16.6 100910 67
2003-09-08 08:12:07 51°17.44 2°40.49 2.2 350 16.6 100910 67
2003-09-08 08:12:11 51°17.44 2°40.49 2.2 343 16.6 100910 67
2003-09-08 08:12:15 51°17.44 2°40.49 2.4 340 16.6 100910 67
2003-09-08 08:12:21 51°17.44 2°40.49 2.5 339 16.6 100910 67
2003-09-08 08:12:27 51°17.43 2°40.49 3.3 341 16.6 100910 67
2003-09-08 08:12:31 51°17.43 2°40.49 3.1 350 16.6 100910 67
2003-09-08 08:12:37 51°17.43 2°40.49 2.9 353 16.6 100910 67
2003-09-08 08:12:41 51°17.43 2°40.49 2.9 352 16.7 100910 67
2003-09-08 08:12:47 51°17.43 2°40.49 2.9 355 16.7 100910 67
2003-09-08 08:12:53 51°17.43 2°40.49 2.7 3 16.7 100910 67
2003-09-08 08:12:57 51°17.43 2°40.49 2.9 359 16.7 100910 67
2003-09-08 08:13:03 51°17.43 2°40.48 2.6 356 16.7 100910 67
2003-09-08 08:13:07 51°17.43 2°40.48 2.4 359 16.7 100910 67
2003-09-08 08:13:13 51°17.43 2°40.48 2.4 356 16.8 100910 67
2003-09-08 08:13:19 51°17.43 2°40.48 2.3 352 16.8 100910 67
2003-09-08 08:13:23 51°17.43 2°40.48 2.8 359 16.8 100910 67
2003-09-08 08:13:29 51°17.42 2°40.48 2.7 348 16.8 100910 67
2003-09-08 08:13:33 51°17.42 2°40.48 2.5 355 16.8 100910 67
2003-09-08 08:13:39 51°17.42 2°40.48 2.7 352 16.8 100910 67
2003-09-08 08:13:43 51°17.42 2°40.48 2.5 355 16.8 100910 67
2003-09-08 08:13:49 51°17.42 2°40.47 2.6 357 16.8 100910 67
2003-09-08 08:13:55 51°17.42 2°40.47 2.4 352 16.8 100910 67
2003-09-08 08:13:59 51°17.42 2°40.47 2.8 340 16.8 100910 67
2003-09-08 08:14:05 51°17.41 2°40.47 3.2 338 16.9 100910 67
2003-09-08 08:14:09 51°17.41 2°40.46 3 338 16.9 100910 67
2003-09-08 08:14:13 51°17.41 2°40.46 3.3 342 16.9 100910 67
2003-09-08 08:14:17 51°17.41 2°40.45 3.4 335 16.9 100910 67
2003-09-08 08:14:21 51°17.4 2°40.45 3.2 333 16.9 100910 66
2003-09-08 08:14:25 51°17.4 2°40.44 3.6 331 16.9 100910 66
2003-09-08 08:14:31 51°17.4 2°40.43 2.6 334 16.9 100910 66
2003-09-08 08:14:35 51°17.4 2°40.42 3.2 328 16.9 100910 66
2003-09-08 08:14:39 51°17.4 2°40.41 3.4 316 16.9 100910 66
2003-09-08 08:14:45 51°17.41 2°40.4 2.9 309 16.9 100910 66
2003-09-08 08:14:51 51°17.41 2°40.38 2.5 298 16.9 100910 66
2003-09-08 08:14:55 51°17.42 2°40.38 2.1 301 16.9 100910 66
2003-09-08 08:14:59 51°17.42 2°40.37 1.5 304 16.9 100910 66
2003-09-08 08:15:05 51°17.43 2°40.37 1.2 307 16.9 100910 66
2003-09-08 08:15:11 51°17.44 2°40.36 1.2 301 16.9 100910 66
2003-09-08 08:15:15 51°17.44 2°40.36 0.7 308 16.9 100910 66
2003-09-08 08:15:19 51°17.45 2°40.36 0.5 360 17 100910 66
2003-09-08 08:15:25 51°17.46 2°40.37 0.8 80 17 100910 66
2003-09-08 08:15:31 51°17.47 2°40.37 1.4 61 16.9 100910 66
2003-09-08 08:15:35 51°17.47 2°40.38 1.6 60 16.9 100910 66
2003-09-08 08:15:39 51°17.48 2°40.39 2.6 66 16.9 100910 66
2003-09-08 08:15:45 51°17.48 2°40.4 2.7 56 16.9 100910 66
2003-09-08 08:15:51 51°17.49 2°40.41 2.9 47 17 100910 66
2003-09-08 08:15:55 51°17.49 2°40.43 3.2 36 17 100910 66
2003-09-08 08:15:59 51°17.49 2°40.44 3.1 46 17 100910 65
2003-09-08 08:16:05 51°17.49 2°40.46 3.1 40 17 100910 65
2003-09-08 08:16:11 51°17.5 2°40.47 3.3 47 16.9 100910 65
2003-09-08 08:16:15 51°17.5 2°40.49 3.3 31 16.9 100910 65
2003-09-08 08:16:21 51°17.5 2°40.51 3.9 29 16.9 100910 65
2003-09-08 08:16:25 51°17.51 2°40.52 4.1 32 16.9 100910 65
2003-09-08 08:16:29 51°17.51 2°40.54 3.9 34 16.9 100910 65
2003-09-08 08:16:35 51°17.51 2°40.56 4 26 16.9 100910 65
2003-09-08 08:16:39 51°17.51 2°40.57 3.9 27 16.8 100910 65
2003-09-08 08:16:45 51°17.51 2°40.6 3.6 26 16.8 100910 65
2003-09-08 08:16:51 51°17.52 2°40.62 3.8 27 16.9 100910 65
2003-09-08 08:16:55 51°17.52 2°40.63 3.3 28 16.9 100910 65
2003-09-08 08:17:01 51°17.53 2°40.66 3 34 16.9 100910 66
2003-09-08 08:17:05 51°17.53 2°40.67 2.8 24 16.9 100910 66
2003-09-08 08:17:11 51°17.53 2°40.68 2.8 30 16.8 100910 66
2003-09-08 08:17:15 51°17.54 2°40.69 1.8 14 16.8 100910 66
2003-09-08 08:17:21 51°17.54 2°40.7 1.5 25 16.8 100910 66
2003-09-08 08:17:25 51°17.55 2°40.71 1.3 14 16.8 100910 66
2003-09-08 08:17:31 51°17.56 2°40.72 1.1 19 16.8 100910 66
2003-09-08 08:17:35 51°17.56 2°40.72 1 14 16.8 100910 66
2003-09-08 08:17:41 51°17.57 2°40.73 0.7 10 16.8 100910 66
2003-09-08 08:17:45 51°17.57 2°40.73 0.5 11 16.8 100910 66
2003-09-08 08:17:51 51°17.58 2°40.73 0.2 341 16.8 100910 66
2003-09-08 08:17:55 51°17.58 2°40.73 0.1 341 16.8 100910 66
2003-09-08 08:18:01 51°17.58 2°40.73 0.1 307 16.8 100910 66
2003-09-08 08:18:05 51°17.58 2°40.73 0.5 246 16.8 100910 66
2003-09-08 08:18:11 51°17.58 2°40.73 0.8 245 16.8 100910 66
2003-09-08 08:18:15 51°17.59 2°40.73 0.8 249 16.8 100910 66
2003-09-08 08:18:21 51°17.59 2°40.73 1.4 258 16.8 100910 66
2003-09-08 08:18:25 51°17.59 2°40.73 0.9 248 16.8 100910 66
2003-09-08 08:18:31 51°17.59 2°40.73 1.2 257 16.8 100910 66
2003-09-08 08:18:35 51°17.59 2°40.73 1.8 261 16.8 100910 66
2003-09-08 08:18:39 51°17.59 2°40.73 1.5 251 16.8 100910 66
2003-09-08 08:18:45 51°17.59 2°40.73 1.3 254 16.8 100910 66
2003-09-08 08:18:51 51°17.59 2°40.73 2.1 246 16.8 100910 66
2003-09-08 08:18:55 51°17.59 2°40.72 2.7 238 16.8 100910 66
2003-09-08 08:18:59 51°17.59 2°40.72 2.2 236 16.8 100910 66
2003-09-08 08:19:05 51°17.59 2°40.72 2.1 238 16.8 100910 66